contact:dominique.lefevre@mio.osupytheas.fr, maurice.libes@osupytheas.fr, didier.mallarino@osupytheas.fr
Project:EMSO http://www.emso-fr.org/EMSO-France
Depth: 2436.0 m
Title:EMSO Ligure Ouest : Data MII capteur AQUADOPP
Date,Latitude,Longitude,X_East,Y_North,Z_Up,Amplitude_X,Amplitude_Y,Amplitude_Z,Batterie,SoundSpeed,Heading,Pitch,Roll,Pressure,TIS,Speed,Direction
, degrees North, degrees East, m.s-1, m.s-1,m.s-1, 1, 1, 1, Volt, m.s-1, degree, degree, degree, dbar, degree_C, m.s-1, degree
2019-10-17T00:04:04,42.805,6.029,-0.041,0.012,-0.09,99.0,106.0,98.0,13.3,1505.1,326.0,-0.7,1.8,2470.479,13.27,0.042,286.3
2019-10-17T00:07:05,42.805,6.029,0.002,0.017,-0.045,98.0,104.0,100.0,13.4,1505.2,324.4,-0.7,1.8,2470.377,13.29,0.017,6.7
2019-10-17T00:10:06,42.805,6.029,0.006,-0.004,-0.049,98.0,105.0,100.0,13.4,1505.2,324.9,-0.7,1.8,2470.282,13.3,0.007,123.7
2019-10-17T00:13:07,42.805,6.029,-0.02,-0.01,-0.081,98.0,104.0,97.0,13.4,1505.3,324.5,-0.7,1.8,2470.164,13.31,0.022,243.4
2019-10-17T00:16:08,42.805,6.029,-0.011,0.016,-0.079,99.0,106.0,97.0,13.3,1505.3,325.4,-0.7,1.8,2470.149,13.32,0.019,325.5
2019-10-17T00:19:09,42.805,6.029,0.005,0.001,-0.053,102.0,108.0,96.0,13.4,1505.3,326.5,-0.7,1.8,2470.035,13.33,0.005,78.7
2019-10-17T00:22:10,42.805,6.029,-0.011,0.016,-0.036,100.0,106.0,98.0,13.4,1505.3,325.0,-0.8,1.8,2469.962,13.33,0.019,325.5
2019-10-17T00:25:11,42.805,6.029,-0.014,-0.001,-0.085,99.0,105.0,97.0,13.3,1505.3,325.2,-0.7,1.9,2469.965,13.33,0.014,265.9
2019-10-17T00:28:12,42.805,6.029,-0.062,0.022,-0.102,99.0,106.0,97.0,13.4,1505.3,328.3,-0.7,1.8,2469.969,13.33,0.065,289.5
2019-10-17T00:31:13,42.805,6.029,-0.027,0.004,-0.078,99.0,105.0,98.0,13.3,1505.4,325.3,-0.7,1.8,2469.935,13.34,0.027,278.4
2019-10-17T00:34:14,42.805,6.029,-0.101,0.005,-0.106,99.0,106.0,99.0,13.3,1505.4,323.7,-0.7,1.8,2469.912,13.34,0.101,272.8
2019-10-17T00:37:15,42.805,6.029,-0.042,0.008,-0.069,99.0,106.0,99.0,13.4,1505.4,327.3,-0.7,1.9,2469.918,13.34,0.042,280.8
2019-10-17T00:40:16,42.805,6.029,-0.046,-0.001,-0.085,100.0,105.0,97.0,13.3,1505.4,326.0,-0.7,1.8,2469.883,13.34,0.046,268.8
2019-10-17T00:43:17,42.805,6.029,0.017,0.017,-0.077,100.0,106.0,96.0,13.4,1505.4,323.1,-0.7,1.8,2469.87,13.34,0.024,45.0
2019-10-17T00:46:18,42.805,6.029,0.0,-0.015,-0.073,99.0,106.0,98.0,13.4,1505.4,327.0,-0.7,1.8,2469.877,13.34,0.015,180.0
2019-10-17T00:49:19,42.805,6.029,-0.009,0.01,-0.09,100.0,107.0,100.0,13.3,1505.4,325.3,-0.7,1.8,2469.883,13.34,0.013,318.0
2019-10-17T00:52:20,42.805,6.029,0.014,-0.006,-0.09,99.0,105.0,98.0,13.3,1505.4,323.7,-0.7,1.8,2469.929,13.34,0.015,113.2
2019-10-17T00:55:21,42.805,6.029,0.012,0.005,-0.061,99.0,105.0,97.0,13.3,1505.4,328.2,-0.7,1.8,2469.886,13.34,0.013,67.4
2019-10-17T00:58:22,42.805,6.029,-0.029,0.023,-0.066,97.0,106.0,99.0,13.4,1505.4,326.2,-0.7,1.8,2469.902,13.34,0.037,308.4
2019-10-17T01:01:23,42.805,6.029,-0.02,0.007,-0.061,101.0,106.0,98.0,13.4,1505.4,325.5,-0.7,1.8,2469.889,13.34,0.021,289.3
2019-10-17T01:04:24,42.805,6.029,-0.054,0.01,-0.107,99.0,107.0,98.0,13.3,1505.4,324.5,-0.7,1.8,2469.921,13.34,0.054,280.5
2019-10-17T01:07:25,42.805,6.029,-0.048,0.015,-0.078,101.0,105.0,97.0,13.4,1505.4,323.4,-0.7,1.8,2469.894,13.34,0.05,287.4
2019-10-17T01:10:26,42.805,6.029,-0.034,0.007,-0.085,99.0,106.0,98.0,13.3,1505.4,326.0,-0.7,1.8,2469.906,13.34,0.034,281.6
2019-10-17T01:13:27,42.805,6.029,-0.05,0.014,-0.112,99.0,106.0,97.0,13.3,1505.4,326.8,-0.7,1.9,2469.895,13.34,0.051,285.6
2019-10-17T01:16:28,42.805,6.029,-0.018,-0.001,-0.071,98.0,112.0,97.0,13.3,1505.4,325.8,-0.7,1.8,2469.9,13.34,0.018,266.8
2019-10-17T01:19:29,42.805,6.029,-0.007,-0.002,-0.04,99.0,105.0,98.0,13.3,1505.4,328.4,-0.7,1.9,2469.915,13.34,0.007,254.1
2019-10-17T01:22:30,42.805,6.029,-0.034,-0.01,-0.085,101.0,107.0,98.0,13.3,1505.4,326.4,-0.7,1.8,2469.899,13.34,0.035,253.6
2019-10-17T01:25:31,42.805,6.029,-0.043,0.022,-0.065,99.0,106.0,98.0,13.3,1505.4,328.0,-0.7,1.8,2469.902,13.34,0.048,297.1
2019-10-17T01:28:32,42.805,6.029,-0.037,0.014,-0.08,100.0,105.0,100.0,13.4,1505.4,327.0,-0.7,1.8,2469.887,13.34,0.039,290.7
2019-10-17T01:31:33,42.805,6.029,-0.065,-0.006,-0.081,99.0,105.0,103.0,13.4,1505.4,327.2,-0.7,1.8,2469.896,13.34,0.065,264.7
2019-10-17T01:34:34,42.805,6.029,-0.019,0.011,-0.077,98.0,106.0,98.0,13.4,1505.4,328.2,-0.7,1.8,2469.884,13.34,0.021,300.1
2019-10-17T01:37:35,42.805,6.029,-0.034,0.011,-0.055,98.0,105.0,99.0,13.3,1505.4,326.9,-0.7,1.8,2469.938,13.34,0.035,287.9
2019-10-17T01:40:36,42.805,6.029,-0.022,-0.007,-0.065,101.0,107.0,97.0,13.4,1505.4,325.7,-0.7,1.9,2469.919,13.34,0.023,252.4
2019-10-17T01:43:37,42.805,6.029,-0.039,0.0,-0.09,100.0,105.0,98.0,13.4,1505.4,324.1,-0.7,1.8,2469.927,13.34,0.039,270.0
2019-10-17T01:46:38,42.805,6.029,-0.061,-0.004,-0.103,97.0,105.0,99.0,13.4,1505.4,324.4,-0.7,1.8,2469.922,13.35,0.061,266.3
2019-10-17T01:49:39,42.805,6.029,-0.01,0.011,-0.036,99.0,105.0,97.0,13.3,1505.4,324.9,-0.7,1.8,2469.946,13.35,0.014,317.7
2019-10-17T01:52:40,42.805,6.029,-0.019,0.012,-0.049,100.0,106.0,98.0,13.4,1505.4,325.0,-0.7,1.8,2469.921,13.35,0.022,302.3
2019-10-17T01:55:41,42.805,6.029,0.0,-0.014,-0.055,102.0,106.0,96.0,13.3,1505.4,328.3,-0.7,1.8,2469.926,13.35,0.014,180.0
2019-10-17T01:58:42,42.805,6.029,0.002,-0.001,-0.048,105.0,106.0,98.0,13.3,1505.4,326.4,-0.7,1.8,2469.915,13.35,0.002,116.6
2019-10-17T02:01:43,42.805,6.029,-0.026,0.0,-0.079,104.0,106.0,98.0,13.3,1505.4,326.7,-0.7,1.9,2469.896,13.35,0.026,270.0
2019-10-17T02:04:44,42.805,6.029,-0.01,0.035,-0.044,99.0,105.0,96.0,13.4,1505.4,325.0,-0.7,1.8,2469.907,13.35,0.036,344.1
2019-10-17T02:07:45,42.805,6.029,-0.005,0.019,-0.033,98.0,108.0,98.0,13.4,1505.4,322.9,-0.7,1.8,2469.9,13.35,0.019,345.3
2019-10-17T02:10:46,42.805,6.029,0.002,0.023,-0.015,98.0,106.0,99.0,13.3,1505.4,326.5,-0.6,1.8,2469.9,13.35,0.023,5.0
2019-10-17T02:13:47,42.805,6.029,-0.016,0.016,-0.027,98.0,105.0,100.0,13.3,1505.4,324.1,-0.8,1.8,2469.903,13.35,0.022,315.0
2019-10-17T02:16:48,42.805,6.029,0.004,0.01,-0.042,101.0,106.0,98.0,13.4,1505.4,324.7,-0.7,1.8,2469.932,13.35,0.01,21.8
2019-10-17T02:19:49,42.805,6.029,0.005,-0.006,-0.023,98.0,106.0,98.0,13.4,1505.4,326.6,-0.7,1.8,2469.876,13.35,0.007,140.2
2019-10-17T02:22:50,42.805,6.029,-0.008,0.004,-0.047,97.0,106.0,98.0,13.3,1505.4,324.0,-0.7,1.8,2469.937,13.35,0.008,296.6
2019-10-17T02:25:51,42.805,6.029,-0.003,0.003,-0.032,100.0,105.0,98.0,13.4,1505.4,328.0,-0.7,1.8,2469.914,13.35,0.004,315.0
2019-10-17T02:28:52,42.805,6.029,0.034,0.017,-0.01,99.0,108.0,97.0,13.3,1505.4,326.1,-0.7,1.8,2469.909,13.35,0.038,63.4
2019-10-17T02:31:53,42.805,6.029,0.005,0.002,-0.05,99.0,106.0,96.0,13.3,1505.4,324.3,-0.7,1.8,2469.922,13.35,0.005,68.2
2019-10-17T02:34:54,42.805,6.029,0.012,0.018,-0.024,100.0,105.0,97.0,13.4,1505.4,327.3,-0.7,1.8,2469.896,13.35,0.021,33.7
2019-10-17T02:37:55,42.805,6.029,-0.006,0.011,-0.006,99.0,105.0,98.0,13.4,1505.4,325.3,-0.7,1.9,2469.88,13.35,0.012,331.4
2019-10-17T02:40:56,42.805,6.029,0.0,0.021,-0.017,99.0,106.0,98.0,13.4,1505.4,323.2,-0.7,1.8,2469.899,13.35,0.021,0.0
2019-10-17T02:43:57,42.805,6.029,-0.001,0.008,-0.037,99.0,106.0,97.0,13.3,1505.4,327.9,-0.7,1.9,2469.929,13.35,0.008,352.9
2019-10-17T02:46:58,42.805,6.029,0.007,0.004,-0.037,96.0,106.0,100.0,13.4,1505.4,324.8,-0.7,1.8,2469.937,13.35,0.008,60.3
2019-10-17T02:49:59,42.805,6.029,0.012,0.037,-0.034,100.0,105.0,97.0,13.4,1505.4,324.8,-0.7,1.8,2469.932,13.35,0.038,18.0
2019-10-17T02:53:00,42.805,6.029,0.022,0.027,-0.006,99.0,106.0,98.0,13.4,1505.4,327.8,-0.7,1.8,2469.94,13.35,0.034,39.2
2019-10-17T02:56:01,42.805,6.029,-0.019,0.006,-0.061,99.0,105.0,98.0,13.4,1505.4,325.0,-0.7,1.8,2469.898,13.35,0.019,287.5
2019-10-17T02:59:02,42.805,6.029,-0.003,0.008,-0.047,99.0,106.0,97.0,13.3,1505.4,326.6,-0.7,1.8,2469.922,13.35,0.008,339.4
2019-10-17T03:02:03,42.805,6.029,-0.025,0.019,-0.019,99.0,105.0,98.0,13.3,1505.4,327.0,-0.7,1.8,2469.942,13.35,0.031,307.2
2019-10-17T03:05:04,42.805,6.029,0.025,0.009,-0.027,99.0,106.0,97.0,13.3,1505.4,327.7,-0.7,1.8,2469.94,13.35,0.026,70.2
2019-10-17T03:08:05,42.805,6.029,-0.013,0.04,-0.041,98.0,105.0,97.0,13.4,1505.4,326.3,-0.7,1.9,2469.923,13.35,0.042,342.0
2019-10-17T03:11:06,42.805,6.029,0.013,0.025,-0.055,99.0,105.0,98.0,13.3,1505.4,323.7,-0.8,1.8,2469.905,13.35,0.028,27.5
2019-10-17T03:14:07,42.805,6.029,0.021,0.029,-0.012,98.0,107.0,97.0,13.4,1505.4,325.2,-0.7,1.9,2469.935,13.35,0.035,35.9
2019-10-17T03:17:08,42.805,6.029,-0.008,0.006,-0.047,98.0,108.0,97.0,13.4,1505.4,328.4,-0.7,1.8,2469.939,13.35,0.01,306.9
2019-10-17T03:20:09,42.805,6.029,0.0,0.0,-0.047,99.0,108.0,97.0,13.4,1505.4,324.5,-0.7,1.8,2469.912,13.34,0.0,0.0
2019-10-17T03:23:10,42.805,6.029,0.0,0.009,-0.01,100.0,106.0,98.0,13.3,1505.4,326.9,-0.7,1.8,2469.895,13.34,0.009,0.0
2019-10-17T03:26:11,42.805,6.029,-0.032,0.03,-0.017,98.0,107.0,98.0,13.3,1505.4,325.9,-0.7,1.8,2469.912,13.34,0.043,313.1
2019-10-17T03:29:12,42.805,6.029,-0.001,0.017,-0.035,97.0,107.0,98.0,13.4,1505.4,326.6,-0.7,1.9,2469.944,13.34,0.017,356.6
2019-10-17T03:32:13,42.805,6.029,-0.013,0.012,-0.069,99.0,106.0,97.0,13.4,1505.4,327.4,-0.7,1.8,2469.907,13.34,0.017,312.7
2019-10-17T03:35:14,42.805,6.029,-0.019,0.027,-0.039,100.0,106.0,98.0,13.4,1505.4,326.6,-0.8,1.9,2469.909,13.34,0.033,324.9
2019-10-17T03:38:15,42.805,6.029,0.0,0.011,-0.017,99.0,107.0,97.0,13.4,1505.4,324.3,-0.7,1.9,2469.928,13.34,0.011,0.0
2019-10-17T03:41:16,42.805,6.029,-0.051,0.023,-0.072,99.0,106.0,97.0,13.4,1505.4,326.4,-0.7,1.8,2469.916,13.34,0.055,294.3
2019-10-17T03:44:17,42.805,6.029,-0.006,0.038,-0.005,98.0,107.0,97.0,13.3,1505.4,326.0,-0.7,1.8,2469.929,13.34,0.038,351.0
2019-10-17T03:47:18,42.805,6.029,0.015,0.008,-0.041,100.0,105.0,97.0,13.4,1505.4,327.8,-0.7,1.9,2469.951,13.34,0.017,61.9
2019-10-17T03:50:19,42.805,6.029,0.0,0.017,-0.016,99.0,106.0,98.0,13.4,1505.4,324.5,-0.7,1.8,2469.919,13.34,0.017,0.0
2019-10-17T03:53:20,42.805,6.029,-0.007,0.012,-0.022,100.0,106.0,97.0,13.4,1505.4,325.3,-0.7,1.9,2469.921,13.34,0.013,329.7
2019-10-17T03:56:21,42.805,6.029,-0.019,0.011,-0.044,100.0,106.0,98.0,13.3,1505.4,325.7,-0.7,1.9,2469.938,13.34,0.021,300.1
2019-10-17T03:59:22,42.805,6.029,-0.023,0.02,-0.039,100.0,105.0,98.0,13.4,1505.4,324.3,-0.7,1.8,2469.916,13.34,0.03,311.0
2019-10-17T04:02:23,42.805,6.029,-0.016,0.009,-0.041,100.0,106.0,98.0,13.4,1505.4,323.3,-0.7,1.8,2469.953,13.34,0.018,299.4
2019-10-17T04:05:24,42.805,6.029,-0.015,0.033,-0.051,99.0,106.0,98.0,13.4,1505.4,325.1,-0.7,1.9,2469.938,13.34,0.036,335.6
2019-10-17T04:08:25,42.805,6.029,-0.017,0.007,-0.03,98.0,108.0,97.0,13.4,1505.4,324.2,-0.7,1.8,2469.977,13.34,0.018,292.4
2019-10-17T04:11:26,42.805,6.029,-0.031,0.038,-0.025,100.0,107.0,97.0,13.4,1505.4,325.8,-0.7,1.8,2469.942,13.34,0.049,320.8
2019-10-17T04:14:27,42.805,6.029,-0.024,0.012,-0.043,99.0,107.0,97.0,13.4,1505.4,325.8,-0.7,1.9,2469.95,13.34,0.026,296.6
2019-10-17T04:17:28,42.805,6.029,0.013,-0.003,-0.073,99.0,107.0,98.0,13.4,1505.4,324.6,-0.7,1.9,2469.986,13.34,0.013,103.0
2019-10-17T04:20:29,42.805,6.029,-0.03,0.022,-0.042,100.0,107.0,97.0,13.4,1505.4,325.3,-0.6,1.9,2469.952,13.34,0.037,306.3
2019-10-17T04:23:30,42.805,6.029,0.007,0.011,-0.022,100.0,107.0,97.0,13.3,1505.4,326.8,-0.7,1.9,2469.918,13.34,0.013,32.5
2019-10-17T04:26:31,42.805,6.029,-0.034,0.05,-0.023,100.0,107.0,97.0,13.4,1505.4,323.3,-0.7,1.8,2469.926,13.34,0.06,325.8
2019-10-17T04:29:32,42.805,6.029,-0.018,0.014,-0.028,99.0,107.0,97.0,13.4,1505.4,328.6,-0.7,1.8,2469.935,13.34,0.022,307.9
2019-10-17T04:32:33,42.805,6.029,-0.021,0.04,-0.045,100.0,107.0,98.0,13.4,1505.4,324.8,-0.7,1.8,2469.917,13.34,0.045,332.3
2019-10-17T04:35:34,42.805,6.029,-0.018,0.025,-0.023,99.0,106.0,98.0,13.3,1505.4,327.2,-0.7,1.8,2469.961,13.34,0.03,324.2
2019-10-17T04:38:35,42.805,6.029,-0.014,0.029,-0.006,100.0,106.0,97.0,13.4,1505.4,323.1,-0.7,1.8,2469.952,13.34,0.032,334.2
2019-10-17T04:41:36,42.805,6.029,-0.013,0.019,-0.01,99.0,107.0,98.0,13.4,1505.4,326.7,-0.7,1.9,2469.974,13.34,0.023,325.6
2019-10-17T04:44:37,42.805,6.029,-0.011,0.0,-0.034,99.0,108.0,97.0,13.4,1505.4,326.6,-0.7,1.9,2469.931,13.34,0.011,270.0
2019-10-17T04:47:38,42.805,6.029,-0.009,0.03,-0.033,99.0,108.0,97.0,13.4,1505.4,325.9,-0.7,1.9,2469.942,13.34,0.031,343.3
2019-10-17T04:50:39,42.805,6.029,0.001,0.024,-0.024,100.0,107.0,98.0,13.4,1505.4,327.0,-0.8,1.8,2469.946,13.34,0.024,2.4
2019-10-17T04:53:40,42.805,6.029,-0.009,0.027,-0.029,99.0,108.0,97.0,13.4,1505.4,327.2,-0.7,1.9,2469.973,13.34,0.028,341.6
2019-10-17T04:56:41,42.805,6.029,-0.023,0.034,-0.022,99.0,108.0,98.0,13.3,1505.4,326.3,-0.7,1.9,2469.96,13.34,0.041,325.9
2019-10-17T04:59:42,42.805,6.029,-0.008,0.016,-0.024,99.0,107.0,98.0,13.4,1505.4,325.3,-0.7,1.8,2469.934,13.34,0.017,333.4
2019-10-17T05:02:43,42.805,6.029,-0.016,0.01,-0.068,99.0,107.0,97.0,13.3,1505.4,326.8,-0.7,1.9,2469.966,13.34,0.018,302.0
2019-10-17T05:05:44,42.805,6.029,0.023,0.013,-0.017,99.0,107.0,98.0,13.4,1505.4,323.5,-0.8,1.8,2469.954,13.34,0.026,60.5
2019-10-17T05:08:45,42.805,6.029,0.005,0.029,-0.041,101.0,107.0,98.0,13.4,1505.4,327.6,-0.7,1.9,2469.94,13.34,0.029,9.8
2019-10-17T05:11:46,42.805,6.029,0.005,0.015,-0.027,99.0,107.0,97.0,13.4,1505.4,327.0,-0.7,1.8,2469.948,13.34,0.015,18.4
2019-10-17T05:14:47,42.805,6.029,-0.017,0.029,-0.033,100.0,107.0,98.0,13.3,1505.4,324.9,-0.7,1.8,2469.917,13.34,0.033,329.6
2019-10-17T05:17:48,42.805,6.029,-0.019,0.013,-0.041,100.0,109.0,97.0,13.3,1505.4,327.2,-0.7,1.8,2469.951,13.34,0.023,304.4
2019-10-17T05:20:49,42.805,6.029,0.004,0.016,-0.02,100.0,106.0,99.0,13.4,1505.4,326.7,-0.7,1.8,2469.923,13.34,0.016,14.0
2019-10-17T05:23:50,42.805,6.029,-0.003,0.009,-0.03,98.0,109.0,98.0,13.3,1505.4,327.4,-0.7,1.9,2469.98,13.34,0.009,341.6
2019-10-17T05:26:51,42.805,6.029,-0.009,0.046,0.0,100.0,107.0,97.0,13.4,1505.4,326.0,-0.7,1.8,2469.943,13.34,0.046,348.9
2019-10-17T05:29:52,42.805,6.029,-0.008,0.041,-0.03,99.0,109.0,97.0,13.4,1505.4,326.6,-0.7,1.8,2469.968,13.34,0.041,349.0
2019-10-17T05:32:53,42.805,6.029,0.004,0.027,0.0,99.0,107.0,98.0,13.3,1505.4,325.1,-0.7,1.8,2469.984,13.34,0.027,8.4
2019-10-17T05:35:54,42.805,6.029,0.013,0.022,-0.013,100.0,107.0,97.0,13.3,1505.4,326.7,-0.8,1.8,2470.018,13.34,0.025,30.6
2019-10-17T05:38:55,42.805,6.029,0.0,0.029,-0.026,98.0,107.0,98.0,13.4,1505.4,325.6,-0.7,1.9,2469.991,13.34,0.028,0.0
2019-10-17T05:41:56,42.805,6.029,0.001,-0.001,-0.024,99.0,108.0,98.0,13.4,1505.4,325.6,-0.7,1.8,2470.017,13.34,0.001,135.0
2019-10-17T05:44:57,42.805,6.029,-0.015,0.009,-0.055,99.0,109.0,98.0,13.4,1505.4,327.5,-0.7,1.8,2469.992,13.34,0.017,301.0
2019-10-17T05:47:58,42.805,6.029,0.017,0.027,0.015,100.0,108.0,97.0,13.4,1505.4,324.7,-0.7,1.8,2470.019,13.34,0.031,32.2
2019-10-17T05:50:59,42.805,6.029,0.009,0.037,-0.049,99.0,108.0,98.0,13.4,1505.4,325.3,-0.7,1.8,2470.029,13.34,0.038,13.7
2019-10-17T05:54:00,42.805,6.029,-0.018,0.026,-0.022,99.0,108.0,97.0,13.3,1505.4,325.5,-0.7,1.8,2469.963,13.34,0.031,325.3
2019-10-17T05:57:01,42.805,6.029,0.004,0.023,0.004,100.0,107.0,98.0,13.3,1505.4,328.1,-0.7,1.8,2470.001,13.34,0.023,9.9
2019-10-17T06:00:02,42.805,6.029,0.001,0.03,-0.022,99.0,109.0,97.0,13.4,1505.4,326.3,-0.7,1.9,2470.014,13.34,0.03,1.9
2019-10-17T06:03:03,42.805,6.029,0.015,0.033,-0.035,98.0,109.0,98.0,13.4,1505.4,325.8,-0.7,1.9,2470.038,13.34,0.036,24.4
2019-10-17T06:06:04,42.805,6.029,0.004,0.012,-0.06,99.0,108.0,98.0,13.4,1505.4,328.2,-0.7,1.8,2470.001,13.34,0.012,18.4
2019-10-17T06:09:05,42.805,6.029,-0.012,0.04,-0.018,101.0,107.0,96.0,13.4,1505.4,327.8,-0.7,1.8,2470.023,13.34,0.041,343.3
2019-10-17T06:12:06,42.805,6.029,0.006,0.044,-0.027,99.0,109.0,97.0,13.3,1505.4,324.9,-0.8,1.9,2470.052,13.34,0.044,7.8
2019-10-17T06:15:07,42.805,6.029,0.037,0.039,-0.003,98.0,109.0,97.0,13.4,1505.4,326.3,-0.7,1.8,2470.009,13.34,0.053,43.5
2019-10-17T06:18:08,42.805,6.029,0.014,0.008,0.014,100.0,110.0,97.0,13.3,1505.4,327.1,-0.7,1.8,2470.042,13.34,0.016,60.3
2019-10-17T06:21:09,42.805,6.029,-0.014,0.025,-0.037,99.0,108.0,98.0,13.4,1505.4,326.3,-0.7,1.8,2470.022,13.34,0.028,330.7
2019-10-17T06:24:10,42.805,6.029,-0.022,0.014,-0.039,101.0,108.0,97.0,13.3,1505.4,326.0,-0.8,1.8,2469.996,13.34,0.026,302.5
2019-10-17T06:27:11,42.805,6.029,-0.012,0.034,-0.054,100.0,108.0,97.0,13.4,1505.4,325.1,-0.7,1.8,2470.016,13.34,0.036,340.6
2019-10-17T06:30:12,42.805,6.029,-0.016,0.021,-0.006,100.0,107.0,98.0,13.3,1505.4,323.2,-0.7,1.8,2470.006,13.34,0.026,322.7
2019-10-17T06:33:13,42.805,6.029,-0.002,0.007,-0.008,98.0,109.0,98.0,13.4,1505.4,326.5,-0.7,1.8,2470.03,13.34,0.007,344.1
2019-10-17T06:36:14,42.805,6.029,-0.011,-0.002,-0.071,99.0,108.0,98.0,13.4,1505.4,325.7,-0.7,1.8,2470.063,13.34,0.011,259.7
2019-10-17T06:39:15,42.805,6.029,-0.002,0.013,-0.027,100.0,108.0,98.0,13.4,1505.4,326.4,-0.7,1.8,2470.037,13.34,0.013,351.3
2019-10-17T06:42:16,42.805,6.029,0.004,0.009,-0.036,100.0,108.0,99.0,13.4,1505.4,323.1,-0.8,1.9,2470.075,13.34,0.009,24.0
2019-10-17T06:45:17,42.805,6.029,-0.01,0.025,-0.037,98.0,111.0,98.0,13.3,1505.4,324.5,-0.7,1.8,2470.065,13.34,0.026,338.2
2019-10-17T06:48:18,42.805,6.029,-0.028,0.021,-0.051,98.0,109.0,98.0,13.4,1505.4,324.0,-0.7,1.8,2470.075,13.34,0.035,306.9
2019-10-17T06:51:19,42.805,6.029,-0.016,0.025,-0.008,98.0,110.0,97.0,13.4,1505.3,327.8,-0.7,1.8,2470.073,13.33,0.029,327.4
2019-10-17T06:54:20,42.805,6.029,0.006,0.03,-0.011,100.0,110.0,97.0,13.4,1505.4,324.5,-0.7,1.8,2470.083,13.34,0.03,11.3
2019-10-17T06:57:21,42.805,6.029,-0.001,0.024,-0.006,101.0,110.0,97.0,13.3,1505.4,326.1,-0.7,1.9,2470.062,13.34,0.024,357.6
2019-10-17T07:00:22,42.805,6.029,-0.008,0.014,-0.017,100.0,109.0,97.0,13.3,1505.4,323.1,-0.6,1.9,2470.053,13.34,0.016,330.3
2019-10-17T07:03:23,42.805,6.029,0.029,0.009,-0.022,100.0,108.0,98.0,13.4,1505.4,325.4,-0.7,1.8,2470.078,13.34,0.03,72.8
2019-10-17T07:06:24,42.805,6.029,0.01,0.033,-0.027,100.0,108.0,98.0,13.4,1505.4,325.0,-0.7,1.8,2470.072,13.34,0.034,16.9
2019-10-17T07:09:25,42.805,6.029,0.018,0.016,-0.039,99.0,108.0,98.0,13.3,1505.4,324.9,-0.7,1.9,2470.126,13.34,0.024,48.4
2019-10-17T07:12:26,42.805,6.029,-0.007,0.039,-0.02,98.0,108.0,98.0,13.4,1505.3,325.0,-0.7,1.8,2470.101,13.33,0.039,349.8
2019-10-17T07:15:27,42.805,6.029,0.017,0.023,-0.03,98.0,108.0,98.0,13.4,1505.3,326.0,-0.8,1.8,2470.127,13.33,0.028,36.5
2019-10-17T07:18:28,42.805,6.029,0.007,0.015,-0.008,99.0,109.0,98.0,13.3,1505.3,326.6,-0.7,1.8,2470.094,13.33,0.016,25.0
2019-10-17T07:21:29,42.805,6.029,-0.004,0.026,-0.016,99.0,109.0,98.0,13.3,1505.3,327.2,-0.7,1.8,2470.093,13.33,0.026,351.3
2019-10-17T07:24:30,42.805,6.029,-0.035,0.019,-0.074,100.0,108.0,98.0,13.3,1505.3,323.8,-0.7,1.8,2470.119,13.33,0.039,298.5
2019-10-17T07:27:31,42.805,6.029,0.003,0.037,-0.019,100.0,113.0,97.0,13.3,1505.3,323.2,-0.7,1.9,2470.137,13.33,0.037,4.6
2019-10-17T07:30:32,42.805,6.029,-0.018,0.034,-0.045,99.0,109.0,98.0,13.4,1505.3,323.0,-0.8,1.8,2470.151,13.33,0.038,332.1
2019-10-17T07:33:33,42.805,6.029,-0.01,0.026,-0.034,102.0,111.0,100.0,13.3,1505.3,328.1,-0.7,1.8,2470.115,13.33,0.027,339.0
2019-10-17T07:36:34,42.805,6.029,0.012,0.03,-0.022,99.0,109.0,98.0,13.3,1505.3,325.9,-0.7,1.8,2470.12,13.33,0.032,21.8
2019-10-17T07:39:35,42.805,6.029,0.0,0.033,-0.02,99.0,108.0,98.0,13.4,1505.3,326.9,-0.7,1.9,2470.108,13.33,0.033,0.0
2019-10-17T07:42:36,42.805,6.029,-0.011,0.02,-0.052,99.0,107.0,98.0,13.4,1505.3,323.7,-0.7,1.8,2470.119,13.33,0.022,331.2
2019-10-17T07:45:37,42.805,6.029,0.042,0.016,-0.007,99.0,109.0,98.0,13.4,1505.3,326.5,-0.7,1.8,2470.135,13.33,0.044,69.1
2019-10-17T07:48:38,42.805,6.029,0.03,0.031,-0.01,100.0,109.0,98.0,13.4,1505.3,326.2,-0.7,1.8,2470.127,13.33,0.043,44.1
2019-10-17T07:51:39,42.805,6.029,-0.015,0.033,-0.03,100.0,108.0,97.0,13.3,1505.3,325.3,-0.7,1.8,2470.113,13.33,0.036,335.6
2019-10-17T07:54:40,42.805,6.029,0.031,0.034,-0.022,99.0,108.0,98.0,13.4,1505.3,328.1,-0.7,1.8,2470.132,13.33,0.046,42.4
2019-10-17T07:57:41,42.805,6.029,0.04,0.031,-0.014,99.0,108.0,98.0,13.4,1505.3,325.1,-0.7,1.8,2470.173,13.33,0.05,52.2
2019-10-17T08:00:42,42.805,6.029,0.012,0.039,-0.027,99.0,109.0,97.0,13.4,1505.3,323.3,-0.7,1.9,2470.135,13.33,0.04,17.1
2019-10-17T08:03:43,42.805,6.029,0.008,0.041,-0.035,99.0,109.0,97.0,13.3,1505.3,328.0,-0.7,1.8,2470.149,13.33,0.041,11.0
2019-10-17T08:06:44,42.805,6.029,0.003,0.021,-0.062,100.0,108.0,97.0,13.4,1505.3,325.3,-0.7,1.8,2470.188,13.33,0.021,8.1
2019-10-17T08:09:45,42.805,6.029,0.02,0.007,-0.043,98.0,108.0,98.0,13.3,1505.3,326.0,-0.7,1.8,2470.156,13.33,0.021,70.7
2019-10-17T08:12:46,42.805,6.029,0.0,0.029,0.0,98.0,108.0,98.0,13.4,1505.3,326.4,-0.7,1.8,2470.153,13.33,0.028,0.0
2019-10-17T08:15:47,42.805,6.029,0.009,0.032,-0.03,99.0,108.0,97.0,13.3,1505.3,325.5,-0.7,1.9,2470.144,13.33,0.033,15.7
2019-10-17T08:18:48,42.805,6.029,0.01,0.021,-0.036,100.0,108.0,98.0,13.4,1505.3,324.2,-0.7,1.8,2470.124,13.33,0.023,25.5
2019-10-17T08:21:49,42.805,6.029,0.005,0.03,-0.011,98.0,110.0,97.0,13.4,1505.3,326.8,-0.7,1.8,2470.176,13.33,0.03,9.5
2019-10-17T08:24:50,42.805,6.029,-0.008,0.017,-0.03,99.0,107.0,97.0,13.4,1505.3,326.0,-0.7,1.8,2470.174,13.33,0.018,334.8
2019-10-17T08:27:51,42.805,6.029,0.005,0.01,-0.015,98.0,111.0,96.0,13.4,1505.3,325.7,-0.7,1.9,2470.149,13.33,0.011,26.6
2019-10-17T08:30:52,42.805,6.029,0.015,0.016,-0.057,98.0,108.0,97.0,13.3,1505.3,324.9,-0.7,1.8,2470.14,13.33,0.021,43.1
2019-10-17T08:33:53,42.805,6.029,0.001,0.008,-0.057,99.0,109.0,98.0,13.4,1505.3,323.5,-0.7,1.9,2470.153,13.33,0.008,7.1
2019-10-17T08:36:54,42.805,6.029,0.016,0.021,-0.03,99.0,109.0,97.0,13.4,1505.3,326.4,-0.7,1.8,2470.134,13.33,0.026,37.3
2019-10-17T08:39:55,42.805,6.029,-0.004,0.021,-0.053,99.0,109.0,98.0,13.3,1505.3,326.7,-0.7,1.8,2470.181,13.33,0.021,349.2
2019-10-17T08:42:56,42.805,6.029,-0.013,0.031,0.0,98.0,109.0,98.0,13.4,1505.3,326.5,-0.7,1.8,2470.145,13.33,0.033,337.3
2019-10-17T08:45:57,42.805,6.029,-0.014,0.02,-0.025,99.0,108.0,97.0,13.4,1505.3,323.9,-0.7,1.8,2470.169,13.33,0.024,325.0
2019-10-17T08:48:58,42.805,6.029,0.007,0.013,-0.001,98.0,108.0,98.0,13.4,1505.3,326.7,-0.7,1.8,2470.162,13.33,0.014,28.3
2019-10-17T08:51:59,42.805,6.029,0.015,0.029,-0.031,100.0,107.0,98.0,13.4,1505.3,324.1,-0.7,1.9,2470.116,13.33,0.032,27.4
2019-10-17T08:55:00,42.805,6.029,-0.01,0.022,-0.057,99.0,110.0,97.0,13.4,1505.3,328.1,-0.7,1.8,2470.168,13.33,0.024,335.6
2019-10-17T08:58:01,42.805,6.029,0.007,0.019,-0.051,98.0,110.0,99.0,13.4,1505.3,326.5,-0.7,1.8,2470.156,13.33,0.02,20.2
2019-10-17T09:01:02,42.805,6.029,-0.004,0.039,-0.023,98.0,109.0,98.0,13.4,1505.3,323.2,-0.7,1.8,2470.153,13.33,0.039,354.1
2019-10-17T09:04:03,42.805,6.029,0.018,0.034,-0.064,97.0,109.0,97.0,13.4,1505.3,327.9,-0.7,1.8,2470.185,13.33,0.038,27.9
2019-10-17T09:07:04,42.805,6.029,-0.007,0.03,-0.034,98.0,107.0,97.0,13.4,1505.3,326.9,-0.7,1.8,2470.161,13.33,0.03,346.9
2019-10-17T09:10:05,42.805,6.029,0.006,0.028,-0.041,98.0,109.0,98.0,13.4,1505.3,324.3,-0.7,1.9,2470.173,13.33,0.028,12.1
2019-10-17T09:13:06,42.805,6.029,0.02,0.033,-0.017,97.0,109.0,98.0,13.4,1505.3,325.4,-0.7,1.9,2470.181,13.33,0.038,31.2
2019-10-17T09:16:07,42.805,6.029,0.013,0.042,0.003,99.0,108.0,97.0,13.3,1505.3,326.5,-0.7,1.8,2470.157,13.33,0.043,17.2
2019-10-17T09:19:08,42.805,6.029,0.0,0.046,-0.032,98.0,109.0,97.0,13.4,1505.3,326.4,-0.7,1.9,2470.199,13.33,0.046,0.0
2019-10-17T09:22:09,42.805,6.029,0.012,0.027,-0.024,99.0,108.0,98.0,13.4,1505.3,326.4,-0.7,1.8,2470.179,13.33,0.029,24.0
2019-10-17T09:25:10,42.805,6.029,0.018,0.025,-0.013,98.0,110.0,98.0,13.4,1505.3,325.3,-0.7,1.8,2470.167,13.32,0.03,35.8
2019-10-17T09:28:11,42.805,6.029,0.03,0.031,-0.005,98.0,109.0,98.0,13.4,1505.3,326.5,-0.7,1.8,2470.166,13.32,0.043,44.1
2019-10-17T09:31:12,42.805,6.029,0.005,0.025,-0.027,100.0,108.0,97.0,13.3,1505.3,323.6,-0.8,1.8,2470.161,13.32,0.025,11.3
2019-10-17T09:34:13,42.805,6.029,0.0,0.019,-0.031,98.0,109.0,97.0,13.4,1505.3,328.0,-0.7,1.8,2470.162,13.33,0.019,0.0
2019-10-17T09:37:14,42.805,6.029,-0.016,0.011,-0.044,99.0,108.0,97.0,13.4,1505.3,326.8,-0.7,1.9,2470.161,13.33,0.019,304.5
